{"data":{"norad_id":53997,"intl_designator":"2022-125AK","name":"STARLINK-5130","alt_names":[],"object_type":"PAYLOAD","status":"ACTIVE","operator":null,"country":"US","launch_date":"2022-10-05","launch_site_code":"AFWTR","launch_vehicle":null,"mission":null,"orbit_class":"UNKNOWN","rcs_meters":null,"size_class":null,"mass_kg":null,"dimensions":null,"purposes":["comms"],"wikipedia_slug":null,"has_3d_model":false,"image_url":null,"decayed_at":null,"tle_current":{"epoch":"2026-05-25T05:21:39.545568Z","epoch_age_seconds":69951,"freshness":"FRESH","line1":"1 53997U 22125AK  26145.22337437  .00000318  00000+0  38087-4 0  9995","line2":"2 53997  53.2147 220.7741 0001165  83.9687 276.1438 15.08836630201154","mean_motion":15.0883663,"eccentricity":0.0001165,"inclination_deg":53.2147,"raan_deg":220.7741,"arg_perigee_deg":83.9687,"mean_anomaly_deg":276.1438,"bstar":3.8087e-5,"rev_number":20115,"period_min":95.437767838391,"perigee_km":538.94775545973,"apogee_km":540.55962399044,"semimajor_km":6917.8906897251,"source":"CELESTRAK","updated_at":"2026-05-25T13:38:17.623353Z"}}}